Weather History for Corinth, MS

Change the Weather History Date:

Thursday, May 1, 2014

  Actual Average Record
Temperature  
Mean Temperature 54 °F -  
Max Temperature 66 °F 79 °F 91 °F (1959)
Min Temperature 41 °F 54 °F 38 °F (1963)
Degree Days  
Heating Degree Days 12    
Growing Degree Days 4 (Base 50)    
Moisture  
Dew Point 39 °F    
Average Humidity 62    
Maximum Humidity 100    
Minimum Humidity 30    
Precipitation  
Precipitation 0.00 in - - ()
Sea Level Pressure  
Sea Level Pressure 30.02 in    
Wind  
Wind Speed 4 mph (WSW)    
Max Wind Speed 17 mph    
Max Gust Speed 22 mph    
Visibility 10 miles    
Events      
Averages and records for this station are not official NWS values.
T = Trace of Precipitation, MM = Missing Value Source: NWS Daily Summary

Daily Weather History Graph

Daily Weather History Graph

Search for Another Location

Airport:

Trip Planner

Search our weather history database for the weather conditions in past years. The results will help you decide how hot, cold, wet, or windy it might be!

Date:

Astronomy

May. 01, 2014 Rise Set
Actual Time 6:03 AM CDT 7:39 PM CDT
Civil Twilight 5:36 AM CDT 8:06 PM CDT
Nautical Twilight 5:04 AM CDT 8:39 PM CDT
Astronomical Twilight 4:30 AM CDT 9:13 PM CDT
Moon 7:53 AM CDT (5/1) 10:10 PM CDT (5/1)
Length of Visible Light 14h 30m
Length of Day
13h 36m
Waxing Crescent, 7% of the Moon is Illuminated
May 1
Waxing Crescent
May 6
First Quarter
May 14
Full
May 21
Last Quarter
May 28
New

Hourly Weather History & Observations

Time (CDT) Temp. Windchill Dew Point Humidity Pressure Visibility Wind Dir Wind Speed Gust Speed Precip Events Conditions
12:10 AM 48.2 °F - 41.0 °F 76% 30.05 in 10.0 mi SSW 3.5 mph - N/A   Clear
12:30 AM 46.4 °F 45.2 °F 41.0 °F 81% 30.05 in 10.0 mi SW 3.5 mph - N/A   Clear
12:50 AM 46.4 °F - 41.0 °F 81% 30.05 in 10.0 mi Calm Calm - N/A   Clear
1:10 AM 44.6 °F - 41.0 °F 87% 30.04 in 10.0 mi Calm Calm - N/A   Clear
1:30 AM 44.6 °F - 41.0 °F 87% 30.04 in 10.0 mi Calm Calm - N/A   Clear
1:50 AM 42.8 °F - 41.0 °F 93% 30.04 in 10.0 mi Calm Calm - N/A   Clear
2:10 AM 44.6 °F 43.1 °F 41.0 °F 87% 30.04 in 10.0 mi SSE 3.5 mph - N/A   Clear
2:30 AM 42.8 °F - 41.0 °F 93% 30.04 in 10.0 mi Calm Calm - N/A   Clear
2:50 AM 44.6 °F - 41.0 °F 87% 30.04 in 10.0 mi Calm Calm - N/A   Clear
3:10 AM 42.8 °F - 41.0 °F 93% 30.04 in 10.0 mi Calm Calm - N/A   Clear
3:30 AM 41.0 °F - 41.0 °F 100% 30.04 in 10.0 mi Calm Calm - N/A   Clear
3:50 AM 42.8 °F 41.1 °F 41.0 °F 93% 30.04 in 10.0 mi SSE 3.5 mph - N/A   Clear
4:10 AM 42.8 °F 41.1 °F 41.0 °F 93% 30.04 in 10.0 mi SSE 3.5 mph - N/A   Clear
4:30 AM 41.0 °F 39.0 °F 39.2 °F 93% 30.04 in 10.0 mi SSE 3.5 mph - N/A   Clear
5:10 AM 41.0 °F - 39.2 °F 93% 30.04 in 10.0 mi Calm Calm - N/A   Clear
5:30 AM 41.0 °F - 39.2 °F 93% 30.04 in 10.0 mi Calm Calm - N/A   Clear
5:50 AM 41.0 °F - 39.2 °F 93% 30.04 in 10.0 mi Calm Calm - N/A   Clear
6:10 AM 41.0 °F - 39.2 °F 93% 30.04 in 10.0 mi North - - N/A   Clear
6:30 AM 42.8 °F - 39.2 °F 87% 30.05 in 10.0 mi Calm Calm - N/A   Clear
6:50 AM 44.6 °F - 41.0 °F 87% 30.05 in 10.0 mi Calm Calm - N/A   Clear
7:10 AM 46.4 °F - 42.8 °F 87% 30.06 in 10.0 mi Calm Calm - N/A   Clear
7:30 AM 48.2 °F - 42.8 °F 82% 30.06 in 10.0 mi West 3.5 mph - N/A   Clear
7:50 AM 50.0 °F - 42.8 °F 76% 30.06 in 10.0 mi West 5.8 mph - N/A   Clear
8:10 AM 50.0 °F - 42.8 °F 76% 30.07 in 10.0 mi West 6.9 mph - N/A   Clear
8:30 AM 51.8 °F - 42.8 °F 71% 30.07 in 10.0 mi WSW 4.6 mph - N/A   Clear
8:50 AM 53.6 °F - 42.8 °F 67% 30.07 in 10.0 mi WSW 5.8 mph - N/A   Clear
9:10 AM 55.4 °F - 41.0 °F 58% 30.07 in 10.0 mi WSW 6.9 mph - N/A   Clear
9:50 AM 59.0 °F - 39.2 °F 48% 30.06 in 10.0 mi West 10.4 mph - N/A   Clear
10:10 AM 59.0 °F - 39.2 °F 48% 30.06 in 10.0 mi West 5.8 mph - N/A   Clear
10:30 AM 60.8 °F - 35.6 °F 39% 30.06 in 10.0 mi West 15.0 mph - N/A   Clear
10:50 AM 62.6 °F - 37.4 °F 39% 30.05 in 10.0 mi West 11.5 mph 16.1 mph N/A   Scattered Clouds
11:10 AM 60.8 °F - 35.6 °F 39% 30.05 in 10.0 mi WNW 8.1 mph 20.7 mph N/A   Mostly Cloudy
11:30 AM 62.6 °F - 35.6 °F 37% 30.04 in 10.0 mi WNW 13.8 mph - N/A   Scattered Clouds
11:50 AM 62.6 °F - 35.6 °F 37% 30.04 in 10.0 mi WSW 13.8 mph 18.4 mph N/A   Mostly Cloudy
12:10 PM 62.6 °F - 35.6 °F 37% 30.03 in 10.0 mi West 15.0 mph 20.7 mph N/A   Mostly Cloudy
12:30 PM 62.6 °F - 35.6 °F 37% 30.03 in 10.0 mi WSW 10.4 mph - N/A   Mostly Cloudy
12:50 PM 62.6 °F - 33.8 °F 34% 30.02 in 10.0 mi West 17.3 mph 21.9 mph N/A   Mostly Cloudy
1:10 PM 64.4 °F - 35.6 °F 34% 30.02 in 10.0 mi West 9.2 mph - N/A   Mostly Cloudy
1:30 PM 64.4 °F - 35.6 °F 34% 30.01 in 10.0 mi SW 15.0 mph 19.6 mph N/A   Mostly Cloudy
1:50 PM 66.2 °F - 35.6 °F 32% 30.01 in 10.0 mi SSW 16.1 mph 19.6 mph N/A   Scattered Clouds
2:10 PM 66.2 °F - 35.6 °F 32% 30.01 in 10.0 mi West 11.5 mph 17.3 mph N/A   Scattered Clouds
2:30 PM 64.4 °F - 35.6 °F 34% 30.00 in 10.0 mi SW 6.9 mph - N/A   Scattered Clouds
2:50 PM 64.4 °F - 32.0 °F 30% 29.99 in 10.0 mi West 4.6 mph 20.7 mph N/A   Scattered Clouds
3:10 PM 66.2 °F - 37.4 °F 35% 29.98 in 10.0 mi SW 10.4 mph 18.4 mph N/A   Partly Cloudy
3:30 PM 66.2 °F - 35.6 °F 32% 29.98 in 10.0 mi WSW 6.9 mph - N/A   Partly Cloudy
4:10 PM 66.2 °F - 37.4 °F 35% 29.97 in 10.0 mi SW 10.4 mph 20.7 mph N/A   Mostly Cloudy
4:30 PM 66.2 °F - 35.6 °F 32% 29.97 in 10.0 mi WSW 12.7 mph - N/A   Scattered Clouds
4:50 PM 66.2 °F - 35.6 °F 32% 29.97 in 10.0 mi WSW 9.2 mph 18.4 mph N/A   Partly Cloudy
5:10 PM 66.2 °F - 35.6 °F 32% 29.97 in 10.0 mi WNW 12.7 mph - N/A   Clear
5:30 PM 66.2 °F - 35.6 °F 32% 29.97 in 10.0 mi WSW 11.5 mph 17.3 mph N/A   Clear
5:50 PM 66.2 °F - 35.6 °F 32% 29.97 in 10.0 mi West 6.9 mph - N/A   Partly Cloudy
6:10 PM 66.2 °F - 35.6 °F 32% 29.97 in 10.0 mi WNW 5.8 mph - N/A   Scattered Clouds
6:30 PM 64.4 °F - 37.4 °F 37% 29.97 in 10.0 mi West 9.2 mph - N/A   Partly Cloudy
6:50 PM 64.4 °F - 37.4 °F 37% 29.97 in 10.0 mi WNW 8.1 mph - N/A   Clear
7:10 PM 62.6 °F - 37.4 °F 39% 29.98 in 10.0 mi WNW 6.9 mph - N/A   Clear
7:50 PM 59.0 °F - 39.2 °F 48% 29.99 in 10.0 mi WNW 4.6 mph - N/A   Clear
8:10 PM 59.0 °F - 39.2 °F 48% 30.00 in 10.0 mi West 4.6 mph - N/A   Clear
8:30 PM 55.4 °F - 42.8 °F 63% 30.00 in 10.0 mi West 3.5 mph - N/A   Clear
8:50 PM 57.2 °F - 39.2 °F 51% 30.01 in 10.0 mi Calm Calm - N/A   Clear
9:10 PM 53.6 °F - 44.6 °F 72% 30.01 in 10.0 mi Calm Calm - N/A   Clear
9:30 PM 53.6 °F - 42.8 °F 67% 30.02 in 10.0 mi Calm Calm - N/A   Clear
9:50 PM 50.0 °F - 42.8 °F 76% 30.02 in 10.0 mi Calm Calm - N/A   Clear
10:10 PM 50.0 °F - 42.8 °F 76% 30.02 in 10.0 mi Calm Calm - N/A   Clear
10:30 PM 50.0 °F - 44.6 °F 82% 30.02 in 10.0 mi Calm Calm - N/A   Clear
10:50 PM 50.0 °F - 42.8 °F 76% 30.02 in 10.0 mi Calm Calm - N/A   Clear
11:10 PM 48.2 °F - 42.8 °F 82% 30.02 in 10.0 mi Calm Calm - N/A   Clear
11:30 PM 48.2 °F - 44.6 °F 87% 30.02 in 10.0 mi Calm Calm - N/A   Clear
11:50 PM 48.2 °F - 42.8 °F 82% 30.01 in 10.0 mi Calm Calm - N/A   Clear